Location: Devargunta
(16.7631°N, 80.9077°E)
Time: 11:06:36
(UTC+00:00)

BREEZE-M DEB (TANK) - Pass Details

Date: 19 January 2021
Orbit: 308 x 15408 km, 49.5° (Epoch: 28 February)

Event Time Altitude Azimuth Distance (km) Brightness Sun altitude
Rises 13:40:40 0° 218° (SW) 4,795 8.0 -17.9°
Reaches altitude 10° 13:45:10 10° 217° (SW) 2,610 6.5 -18.9°
Maximum altitude 13:49:58 74° 132° (SE) 461 1.7 -20.0°
Enters shadow 13:50:00 74° 125° (SE) 459 1.7 -20.0°
